Regional Weather Roundup
Issued by NWS Sterling, VA

Home | Current Version | Previous Version | Text Only | Print | Product List | Glossary On
Versions: 1 2 3 4 5 6 7 8 9 10 11 12 13 14 15 16 17 18 19 20 21 22 23 24 25 26 27
000
ASUS41 KLWX 162110
RWRLWX

REGIONAL WEATHER ROUNDUP
NATIONAL WEATHER SERVICE BALTIMORE MD/WASHINGTON DC
500 PM EDT WED AUG 16 2017

Note: "FAIR" indicates few or no clouds below 12,000 feet
with no significant weather and/or obstructions to visibility.
 TC=TEMPERATURE CELSIUS

 * =Non NWS site. Station does not report precipitation (e.g. rain,
    snow, etc.), thunder, or fog.

DCZ001-MDZ009-015-VAZ040>042-051-053>054-162200-
WASHINGTON METRO

CITY           SKY/WX    TMP DP  RH WIND       PRES   REMARKS
WASHINGTON NAT MOSUNNY   90  69  50 N8        29.97F HX  94
DULLES         MOSUNNY   88  68  51 NW6       29.98F HX  91
ANDREWS AFB    MOSUNNY   86  69  56 N7        29.97S HX  91
FT BELVOIR     SUNNY     89  65  45 W5        29.97S HX  91
QUANTICO       PTSUNNY   89  68  49 VRB3      29.98S HX  93
COLLEGE PARK*  SUNNY     87  69  53 CALM      29.97S HX  91
LEESBURG*      SUNNY     88  72  58 NE6       30.00S HX  94
MANASSAS*      PTSUNNY   87  69  54 N6        29.98F HX  91
GAITHERSBURG*  MOSUNNY   85  70  60 VRB3      30.01S

$$

MDZ006>007-011-014-162200-
BALTIMORE METRO

CITY           SKY/WX    TMP DP  RH WIND       PRES   REMARKS
BWI AIRPORT    MOSUNNY   88  69  53 NW5       29.97S HX  92
MD SCIENCE CTR   N/A     88  69  53 MISG      29.96F HX  92
MARTIN STATE   PTSUNNY   84  75  74 E3        29.89F HX  92
ANNAPOLIS      MOSUNNY   84  79  85 SE10      29.97S HX  96
FORT MEADE*    MOSUNNY   86  68  54 NW7       29.99F

$$

MDZ012-015-019>023-162200-
MARYLAND EASTERN SHORE

CITY           SKY/WX    TMP DP  RH WIND       PRES   REMARKS
OCEAN CITY     SUNNY     81  74  79 S7        29.99S
SALISBURY      PTSUNNY   87  71  58 S5        29.96F HX  93
BAY BRIDGE AP* PTSUNNY   88  73  62 E3        29.97S HX  96
CAMBRIDGE*     SUNNY     88  68  51 NW6       29.97F HX  91
EASTON*        MOSUNNY   88  70  55 N5        30.01S HX  92

$$

MDZ017>025-162200-
SOUTHERN MARYLAND

CITY           SKY/WX    TMP DP  RH WIND       PRES   REMARKS
PATUXENT RIVER PTSUNNY   83  77  82 SE3       29.97F HX  92
ST INIGOES     SUNNY     84  70  62 SW5       29.97S
LEONARDTOWN*   PTSUNNY   82  72  69 SE3       29.99S

$$

MDZ003>005-162200-
NORTH CENTRAL MARYLAND

CITY           SKY/WX    TMP DP  RH WIND       PRES   REMARKS
FREDERICK*     MOSUNNY   88  64  45 CALM      30.02S
HAGERSTOWN APT MOSUNNY   88  65  46 N7        30.00S HX  90
WESTMINSTER*   SUNNY     90  63  40 NW6       30.01F HX  90

$$

MDZ501>502-162200-
WESTERN MARYLAND

CITY           SKY/WX    TMP DP  RH WIND       PRES   REMARKS
OAKLAND*       MOSUNNY   75  61  60 NW6       30.11F
CUMBERLAND*    SUNNY     88  59  37 N9        30.04S

$$

VAZ025>031-162200-
SHENANDOAH VALLEY

CITY           SKY/WX    TMP DP  RH WIND       PRES   REMARKS
WINCHESTER*    PTSUNNY   86  64  48 W6        30.00S
FRONT ROYAL*   CLOUDY    86  68  54 CALM      30.00S
LURAY*         CLOUDY    88  64  45 SW5       30.00S
NEW MARKET*    MOSUNNY  N/A N/A N/A S5        29.99S
STAUNTON*      PTSUNNY   84  63  49 CALM      30.05S
WAYNESBORO*    PTSUNNY   85  63  47 CALM      30.04S

$$

WVZ021-048>050-054>055-162200-
EASTERN WEST VIRGINIA PANHANDLE

CITY           SKY/WX    TMP DP  RH WIND       PRES   REMARKS
MARTINSBURG    MOSUNNY   88  66  48 E9        29.99S HX  90
PETERSBURG*    PTSUNNY   91  68  47 CALM      30.02S HX  94

$$

VAZ036>039-050-162200-
CENTRAL FOOTHILLS

CITY           SKY/WX    TMP DP  RH WIND       PRES   REMARKS
CHARLOTTESVILL MOSUNNY   90  65  43 NE5       29.99S HX  92
CULPEPER*      CLOUDY    86  73  65 CALM      29.99S HX  92
ORANGE*        SUNNY     88  68  51 CALM      29.98F HX  91
GORDONSVILLE*  SUNNY     88  71  57 E3        29.98F HX  93
WARRENTON*     NOT AVBL

$$

VAZ055>057-162200-
NORTH AND CENTRAL PIEDMONT

CITY           SKY/WX    TMP DP  RH WIND       PRES   REMARKS
FREDERICKSBRG* MOSUNNY   89  66  47 CALM      29.97S HX  91
STAFFORD*      MOSUNNY   88  69  53 W3        30.02S HX  91

$$

NCZ024-NYZ072-PAZ021-071-VAZ022-071-162200-
OTHER REGIONAL OBSERVATIONS

CITY           SKY/WX    TMP DP  RH WIND       PRES   REMARKS
NEW YORK CITY  MOSUNNY   83  62  49 CALM      29.98F
PHILADELPHIA   MOSUNNY   88  62  41 NW10      29.96F
PITTSBURGH     MOSUNNY   84  60  44 N6        30.05S
ROANOKE        MOSUNNY   91  63  39 CALM      30.04S HX  92
RICHMOND       MOSUNNY   87  67  51 S5        29.98S HX  90
RALEIGH        MOSUNNY   90  69  50 NE7       30.00F HX  94

$$

ANZ530>537-162200-
MARINE OBSERVATIONS

STATION/POSITION TIME  TEMP    WIND        PRES
                       AIR SEA DIR/SP/G
                 (UTC) (F)     (DEG/KT/KT) (MB)
THOMAS PT LIGHT  2100   83 81  140/  5/  5   N/A
BALT KEY BRIDGE  2048   82     130/  7/  9 1014.7S
COVE POINT       2048   82     170/  5/  6 1015.7S
LEWISETTA        2048   83 83  100/  7/  8 1014.9F
SOLOMONS ISLAND  2048   83 84  160/  5/  6   N/A
PINEY POINT      2048          140/  3/  4   N/A

$$





USA.gov is the U.S. government's official web portal to all federal, state and local government web resources and services.